When you browse on this site, cookies collect data to enhance your experience and personalize the content and advertising you see.
Visit our Privacy Policy to learn more. By continuing to use the site, you agree to this use of cookies and data.
  • In Czech Republic
  • List of Countries
  • For 7 days
  • Water Temperature
  • Satellite Maps
  • Weather Map
  • Weather Widgets
  • user-avatar
    Login

    Hourly Weather Bakans

    Today, 26 June, Wednesday

    Time Temperature Precipitation Wind Pressure Humidity
    00:00 +6°C° 0 mm 0 mps 743 mmHg 90%
    01:00 +6°C° 0 mm 0 mps 743 mmHg 90%
    02:00 +5°C° 0 mm 0 mps 744 mmHg 90%
    03:00 +6°C° 0 mm 0 mps 744 mmHg 89%
    04:00 +7°C° 0 mm 0 mps 745 mmHg 88%
    05:00 +7°C° 0 mm 0 mps 745 mmHg 87%
    06:00 +10°C° 0 mm 0 mps 746 mmHg 79%
    07:00 +13°C° 0 mm 1 mps 746 mmHg 71%
    08:00 +15°C° 0 mm 1 mps 747 mmHg 62%
    09:00 +18°C° 0 mm 1 mps 747 mmHg 57%
    10:00 +19°C° 0 mm 1 mps 747 mmHg 52%
    11:00 +21°C° 0 mm 1 mps 747 mmHg 47%
    12:00 +20°C° 0 mm 2 mps 747 mmHg 48%
    13:00 +20°C° 0 mm 2 mps 747 mmHg 48%
    14:00 +20°C° 0 mm 2 mps 747 mmHg 49%
    15:00 +19°C° 0 mm 2 mps 747 mmHg 51%
    16:00 +19°C° 0 mm 2 mps 748 mmHg 54%
    17:00 +19°C° 0 mm 2 mps 748 mmHg 56%
    18:00 +17°C° 0 mm 2 mps 748 mmHg 65%
    19:00 +15°C° 0 mm 2 mps 748 mmHg 74%
    20:00 +13°C° 0 mm 2 mps 748 mmHg 83%
    21:00 +13°C° 0 mm 2 mps 748 mmHg 85%
    22:00 +12°C° 0 mm 1 mps 748 mmHg 86%
    23:00 +11°C° 0 mm 1 mps 749 mmHg 88%

    Tomorrow, 27 June, Thursday

    Time Temperature Precipitation Wind Pressure Humidity
    00:00 +11°C° 0 mm 1 mps 749 mmHg 88%
    01:00 +10°C° 0 mm 1 mps 749 mmHg 88%
    02:00 +10°C° 0 mm 1 mps 748 mmHg 88%
    03:00 +10°C° 0 mm 1 mps 748 mmHg 87%
    04:00 +11°C° 0 mm 1 mps 749 mmHg 85%
    05:00 +11°C° 0 mm 1 mps 749 mmHg 84%
    06:00 +13°C° 0 mm 1 mps 749 mmHg 77%
    07:00 +15°C° 0 mm 1 mps 749 mmHg 69%
    08:00 +18°C° 0 mm 1 mps 749 mmHg 62%
    09:00 +19°C° 0 mm 1 mps 749 mmHg 57%
    10:00 +19°C° 0 mm 2 mps 748 mmHg 53%
    11:00 +20°C° 0 mm 2 mps 748 mmHg 49%
    12:00 +21°C° 0 mm 2 mps 748 mmHg 47%
    13:00 +21°C° 0 mm 2 mps 748 mmHg 45%
    14:00 +23°C° 0 mm 2 mps 748 mmHg 43%
    15:00 +23°C° 0 mm 2 mps 748 mmHg 46%
    16:00 +21°C° 0 mm 2 mps 747 mmHg 48%
    17:00 +21°C° 0 mm 2 mps 747 mmHg 51%
    18:00 +19°C° 0 mm 2 mps 747 mmHg 60%
    19:00 +17°C° 0 mm 2 mps 747 mmHg 70%
    20:00 +15°C° 0 mm 1 mps 747 mmHg 80%
    21:00 +14°C° 0 mm 1 mps 747 mmHg 83%
    22:00 +13°C° 0 mm 1 mps 747 mmHg 86%
    23:00 +11°C° 0 mm 1 mps 746 mmHg 89%

    Day after tomorrow, 28 June, Friday

    Time Temperature Precipitation Wind Pressure Humidity
    00:00 +11°C° 0 mm 1 mps 746 mmHg 90%
    01:00 +11°C° 0 mm 1 mps 746 mmHg 90%
    02:00 +10°C° 0 mm 1 mps 746 mmHg 90%
    03:00 +11°C° 0 mm 1 mps 745 mmHg 89%
    04:00 +11°C° 0 mm 1 mps 745 mmHg 88%
    05:00 +11°C° 0 mm 0 mps 745 mmHg 87%
    06:00 +14°C° 0 mm 1 mps 745 mmHg 81%
    07:00 +15°C° 0 mm 1 mps 745 mmHg 75%
    08:00 +18°C° 0 mm 1 mps 745 mmHg 69%
    09:00 +20°C° 0 mm 1 mps 745 mmHg 64%
    10:00 +21°C° 0 mm 1 mps 745 mmHg 59%
    11:00 +21°C° 0 mm 2 mps 745 mmHg 55%
    12:00 +23°C° 0 mm 1 mps 744 mmHg 54%
    13:00 +23°C° 0 mm 1 mps 744 mmHg 53%
    14:00 +23°C° 0 mm 1 mps 744 mmHg 52%
    15:00 +23°C° 0 mm 1 mps 743 mmHg 55%
    16:00 +22°C° 0 mm 1 mps 743 mmHg 58%
    17:00 +21°C° 0 mm 2 mps 743 mmHg 60%
    18:00 +19°C° 0 mm 2 mps 743 mmHg 66%
    19:00 +18°C° 0 mm 2 mps 743 mmHg 72%
    20:00 +16°C° 0 mm 2 mps 743 mmHg 77%
    21:00 +16°C° 0 mm 2 mps 743 mmHg 80%
    22:00 +15°C° 0 mm 1 mps 742 mmHg 83%
    23:00 +14°C° 0 mm 1 mps 742 mmHg 85%

    29 June, Saturday

    Time Temperature Precipitation Wind Pressure Humidity
    00:00 +14°C° 0 mm 1 mps 742 mmHg 85%
    01:00 +14°C° 0 mm 1 mps 742 mmHg 85%
    02:00 +14°C° 0 mm 1 mps 741 mmHg 84%
    03:00 +14°C° 0 mm 1 mps 741 mmHg 84%
    04:00 +14°C° 0 mm 1 mps 741 mmHg 84%
    05:00 +14°C° 0 mm 1 mps 741 mmHg 84%
    06:00 +14°C° 0 mm 1 mps 741 mmHg 82%
    07:00 +14°C° 0 mm 0 mps 741 mmHg 79%
    08:00 +14°C° 0 mm 0 mps 741 mmHg 76%
    09:00 +16°C° 0.1 mm 1 mps 741 mmHg 76%
    10:00 +16°C° 0.1 mm 1 mps 741 mmHg 76%
    11:00 +16°C° 0.1 mm 1 mps 740 mmHg 77%
    12:00 +19°C° 0 mm 1 mps 740 mmHg 73%
    13:00 +20°C° 0 mm 1 mps 740 mmHg 69%
    14:00 +21°C° 0 mm 1 mps 740 mmHg 65%
    15:00 +21°C° 0 mm 1 mps 740 mmHg 66%
    16:00 +21°C° 0 mm 1 mps 739 mmHg 67%
    17:00 +21°C° 0 mm 1 mps 739 mmHg 68%
    18:00 +19°C° 0.1 mm 1 mps 739 mmHg 74%
    19:00 +18°C° 0.1 mm 1 mps 739 mmHg 80%
    20:00 +16°C° 0.1 mm 1 mps 739 mmHg 86%
    21:00 +15°C° 0 mm 1 mps 739 mmHg 88%
    22:00 +15°C° 0 mm 1 mps 739 mmHg 89%
    23:00 +14°C° 0 mm 1 mps 739 mmHg 91%

    30 June, Sunday

    Time Temperature Precipitation Wind Pressure Humidity
    00:00 +14°C° 0.1 mm 1 mps 739 mmHg 92%
    01:00 +14°C° 0.1 mm 1 mps 738 mmHg 92%
    02:00 +12°C° 0.1 mm 0 mps 738 mmHg 93%
    03:00 +13°C° 0 mm 1 mps 738 mmHg 93%
    04:00 +14°C° 0 mm 1 mps 738 mmHg 93%
    05:00 +14°C° 0 mm 1 mps 738 mmHg 93%
    06:00 +14°C° 0 mm 1 mps 738 mmHg 91%
    07:00 +15°C° 0 mm 1 mps 738 mmHg 88%
    08:00 +16°C° 0 mm 1 mps 738 mmHg 86%
    09:00 +18°C° 0 mm 1 mps 738 mmHg 84%
    10:00 +17°C° 0 mm 2 mps 738 mmHg 82%
    11:00 +18°C° 0 mm 2 mps 738 mmHg 81%
    12:00 +19°C° 0.2 mm 2 mps 737 mmHg 79%
    13:00 +19°C° 0.2 mm 2 mps 737 mmHg 77%
    14:00 +20°C° 0.2 mm 3 mps 737 mmHg 75%
    15:00 +20°C° 1.1 mm 3 mps 737 mmHg 77%
    16:00 +20°C° 1.1 mm 3 mps 737 mmHg 79%
    17:00 +20°C° 1.1 mm 3 mps 737 mmHg 81%
    18:00 +18°C° 1.2 mm 3 mps 737 mmHg 85%
    19:00 +17°C° 1.2 mm 2 mps 737 mmHg 88%
    20:00 +16°C° 1.2 mm 2 mps 737 mmHg 92%
    21:00 +15°C° 0.3 mm 2 mps 737 mmHg 93%
    22:00 +14°C° 0.3 mm 2 mps 737 mmHg 94%
    23:00 +13°C° 0.3 mm 2 mps 737 mmHg 95%

    1 July, Monday

    Time Temperature Precipitation Wind Pressure Humidity
    00:00 +12°C° 0.1 mm 2 mps 737 mmHg 95%
    01:00 +12°C° 0.1 mm 2 mps 736 mmHg 96%
    02:00 +10°C° 0.1 mm 2 mps 736 mmHg 97%
    03:00 +12°C° 0 mm 1 mps 736 mmHg 97%
    04:00 +12°C° 0 mm 1 mps 736 mmHg 97%
    05:00 +12°C° 0 mm 1 mps 736 mmHg 97%
    06:00 +13°C° 0 mm 1 mps 737 mmHg 96%
    07:00 +13°C° 0 mm 1 mps 737 mmHg 95%
    08:00 +14°C° 0 mm 1 mps 737 mmHg 93%
    09:00 +15°C° 0 mm 2 mps 736 mmHg 89%
    10:00 +16°C° 0 mm 2 mps 736 mmHg 85%
    11:00 +17°C° 0 mm 2 mps 736 mmHg 81%
    12:00 +17°C° 0 mm 2 mps 736 mmHg 77%
    13:00 +18°C° 0 mm 2 mps 736 mmHg 74%
    14:00 +19°C° 0 mm 2 mps 735 mmHg 71%
    15:00 +19°C° 0 mm 3 mps 736 mmHg 71%
    16:00 +19°C° 0 mm 3 mps 736 mmHg 72%
    17:00 +19°C° 0 mm 4 mps 736 mmHg 72%
    18:00 +17°C° 0 mm 4 mps 736 mmHg 78%
    19:00 +14°C° 0 mm 4 mps 736 mmHg 83%
    20:00 +12°C° 0 mm 4 mps 736 mmHg 88%
    21:00 +11°C° 0 mm 4 mps 736 mmHg 91%
    22:00 +10°C° 0 mm 4 mps 736 mmHg 93%
    23:00 +8°C° 0 mm 4 mps 736 mmHg 96%
    Show more